Flag for Czech Republic Weather past 2 weeks in Brno, Czech Republic

Now
31 °F

Fog.


Feels Like: 25 °F
Forecast: 31 / 37 °F
Wind: 6 mph from South

Location: Brno / Turany

Current Time: Jan 29, 2015 at 8:13:17 PM

Latest Report: Jan 29, 2015 at 7:00 PM


Visibility: 2 mi

Pressure: 29.38 "Hg

Humidity: 93%

Dew point: 29 °F

Location of BrnoLocation

Historic Weather in Brno — Graph

°F

Brno temperature yesterday

Maximum temperature yesterday: 38 °F (at 3:00 PM)
Minimum temperature yesterday: 30 °F (at 8:00 AM)
Average temperature yesterday: 34 °F

Past Weeks' High & Low Weather Summary

 TemperatureHumidityPressure
High44 °F (Jan 23, 1:00 PM)97% (Jan 29, 8:00 AM)30.33 "Hg (Jan 29, 8:00 AM)
Low24 °F (Jan 27, 2:00 AM)54% (Jan 26, 3:00 PM)29.38 "Hg (Jan 29, 6:00 PM)
Average36 °F83%30.00 "Hg
* Reported Jan 14 6:00 PM — Jan 29 6:00 PM, Brno, Weather by CustomWeather, © 2014

Note: Actual official high and low records may vary slightly from our data, if they occured in-between our weather recording intervals... More about our weather records

Advertising

Brno weather history for previous 24 hours

 ConditionsComfort  
Time TempWeatherWind HumidityBarometerVisibility
6:00 PM
Jan 29
31 °FFog.7 mph92%29.38 "Hg2 mi
5:00 PM31 °FFog.7 mph90%29.41 "Hg4 mi
4:00 PM31 °FOvercast.3 mph89%29.41 "Hg7 mi
3:00 PM32 °FOvercast.2 mph87%29.44 "Hg7 mi
2:00 PM34 °FScattered clouds.3 mph85%29.47 "Hg7 mi
1:00 PM34 °FPartly sunny.2 mph87%29.47 "Hg6 mi
12:00 PM33 °FFog.5 mph89%29.53 "Hg6 mi
11:00 AM33 °FFog.2 mph91%29.55 "Hg6 mi
10:00 AM32 °FFog.2 mph94%29.55 "Hg6 mi
9:00 AM32 °FFog.2 mph97%29.54 "Hg5 mi
8:00 AM31 °FLow clouds.2 mph97%29.54 "Hg4 mi
7:00 AM31 °FLight snow. Low clouds.5 mph95%29.54 "Hg2 mi
6:00 AM31 °FLight snow. Low clouds.3 mph95%29.55 "Hg1 mi
5:00 AM31 °FLight snow. Low clouds.3 mph93%29.56 "Hg1 mi
4:00 AM31 °FLight snow. Overcast.3 mph87%29.57 "Hg1 mi
3:00 AM32 °FLight snow. Overcast.5 mph76%29.60 "Hg19 mi
2:00 AM32 °FOvercast.6 mph78%29.60 "Hg19 mi
1:00 AM31 °FOvercast.6 mph80%29.63 "Hg19 mi
12:00 AM31 °FPassing clouds.5 mph82%29.68 "Hg19 mi
11:00 PM
Jan 28
32 °FPassing clouds.5 mph78%29.73 "Hg19 mi
10:00 PM32 °FPassing clouds.3 mph78%29.76 "Hg19 mi
9:00 PM33 °FPassing clouds.3 mph75%29.79 "Hg19 mi
8:00 PM33 °FPassing clouds.5 mph77%29.83 "Hg19 mi
Weather by CustomWeather, © 2014

See weather overviewHow to use our weather pages